Year,Month,Day,Hour,Minute,Value (Times are PST for temperature in C)
2013,11,02,00,00,9.60
2013,11,02,00,01,9.60
2013,11,02,00,02,9.60
2013,11,02,00,03,9.60
2013,11,02,00,04,9.60
2013,11,02,00,05,9.60
2013,11,02,00,06,9.60
2013,11,02,00,07,9.60
2013,11,02,00,08,9.60
2013,11,02,00,09,9.60
2013,11,02,00,10,9.60
2013,11,02,00,11,9.60
2013,11,02,00,12,9.60
2013,11,02,00,13,9.60
2013,11,02,00,14,9.60
2013,11,02,00,15,9.60
2013,11,02,00,16,9.60
2013,11,02,00,17,9.60
2013,11,02,00,18,9.60
2013,11,02,00,19,9.60
2013,11,02,00,20,9.60
2013,11,02,00,21,9.60
2013,11,02,00,22,9.60
2013,11,02,00,23,9.60
2013,11,02,00,24,9.60
2013,11,02,00,25,9.60
2013,11,02,00,26,9.60
2013,11,02,00,27,9.60
2013,11,02,00,28,9.60
2013,11,02,00,29,9.60
2013,11,02,00,30,9.60
2013,11,02,00,31,9.60
2013,11,02,00,32,9.60
2013,11,02,00,33,9.60
2013,11,02,00,34,9.60
2013,11,02,00,35,9.60
2013,11,02,00,36,9.60
2013,11,02,00,37,9.60
2013,11,02,00,38,9.60
2013,11,02,00,39,9.60
2013,11,02,00,40,9.60
2013,11,02,00,41,9.60
2013,11,02,00,42,9.60
2013,11,02,00,43,9.60
2013,11,02,00,44,9.60
2013,11,02,00,45,9.60
2013,11,02,00,46,9.60
2013,11,02,00,47,9.60
2013,11,02,00,48,9.60
2013,11,02,00,49,9.60
2013,11,02,00,50,9.60
2013,11,02,00,51,9.70
2013,11,02,00,52,9.70
2013,11,02,00,53,9.70
2013,11,02,00,54,9.70
2013,11,02,00,55,9.70
2013,11,02,00,56,9.70
2013,11,02,00,57,9.70
2013,11,02,00,58,9.70
2013,11,02,00,59,9.70
2013,11,02,01,00,9.70
2013,11,02,01,01,9.70
2013,11,02,01,02,9.70
2013,11,02,01,03,9.70
2013,11,02,01,04,9.70
2013,11,02,01,05,9.70
2013,11,02,01,06,9.70
2013,11,02,01,07,9.70
2013,11,02,01,08,9.70
2013,11,02,01,09,9.70
2013,11,02,01,10,9.70
2013,11,02,01,11,9.70
2013,11,02,01,12,9.70
2013,11,02,01,13,9.70
2013,11,02,01,14,9.70
2013,11,02,01,15,9.60
2013,11,02,01,16,9.60
2013,11,02,01,17,9.60
2013,11,02,01,18,9.60
2013,11,02,01,19,9.60
2013,11,02,01,20,9.60
2013,11,02,01,21,9.60
2013,11,02,01,22,9.60
2013,11,02,01,23,9.60
2013,11,02,01,24,9.60
2013,11,02,01,25,9.60
2013,11,02,01,26,9.60
2013,11,02,01,27,9.60
2013,11,02,01,28,9.60
2013,11,02,01,29,9.60
2013,11,02,01,30,9.60
2013,11,02,01,31,9.60
2013,11,02,01,32,9.50
2013,11,02,01,33,9.50
2013,11,02,01,34,9.50
2013,11,02,01,35,9.50
2013,11,02,01,36,9.50
2013,11,02,01,37,9.50
2013,11,02,01,38,9.50
2013,11,02,01,39,9.50
2013,11,02,01,40,9.50
2013,11,02,01,41,9.50
2013,11,02,01,42,9.50
2013,11,02,01,43,9.50
2013,11,02,01,44,9.50
2013,11,02,01,45,9.50
2013,11,02,01,46,9.50
2013,11,02,01,47,9.50
2013,11,02,01,48,9.50
2013,11,02,01,49,9.50
2013,11,02,01,50,9.50
2013,11,02,01,51,9.40
2013,11,02,01,52,9.40
2013,11,02,01,53,9.40
2013,11,02,01,54,9.40
2013,11,02,01,55,9.40
2013,11,02,01,56,9.40
2013,11,02,01,57,9.40
2013,11,02,01,58,9.40
2013,11,02,01,59,9.40
2013,11,02,02,00,9.40
2013,11,02,02,01,9.40
2013,11,02,02,02,9.40
2013,11,02,02,03,9.40
2013,11,02,02,04,9.40
2013,11,02,02,05,9.40
2013,11,02,02,06,9.40
2013,11,02,02,07,9.40
2013,11,02,02,08,9.40
2013,11,02,02,09,9.40
2013,11,02,02,10,9.40
2013,11,02,02,11,9.40
2013,11,02,02,12,9.40
2013,11,02,02,13,9.40
2013,11,02,02,14,9.40
2013,11,02,02,15,9.40
2013,11,02,02,16,9.40
2013,11,02,02,17,9.40
2013,11,02,02,18,9.40
2013,11,02,02,19,9.40
2013,11,02,02,20,9.40
2013,11,02,02,21,9.40
2013,11,02,02,22,9.40
2013,11,02,02,23,9.40
2013,11,02,02,24,9.40
2013,11,02,02,25,9.40
2013,11,02,02,26,9.40
2013,11,02,02,27,9.40
2013,11,02,02,28,9.40
2013,11,02,02,29,9.40
2013,11,02,02,30,9.40
2013,11,02,02,31,9.40
2013,11,02,02,32,9.40
2013,11,02,02,33,9.40
2013,11,02,02,34,9.30
2013,11,02,02,35,9.30
2013,11,02,02,36,9.30
2013,11,02,02,37,9.30
2013,11,02,02,38,9.30
2013,11,02,02,39,9.30
2013,11,02,02,40,9.30
2013,11,02,02,41,9.30
2013,11,02,02,42,9.30
2013,11,02,02,43,9.30
2013,11,02,02,44,9.30
2013,11,02,02,45,9.30
2013,11,02,02,46,9.30
2013,11,02,02,47,9.30
2013,11,02,02,48,9.30
2013,11,02,02,49,9.30
2013,11,02,02,50,9.30
2013,11,02,02,51,9.30
2013,11,02,02,52,9.30
2013,11,02,02,53,9.30
2013,11,02,02,54,9.30
2013,11,02,02,55,9.30
2013,11,02,02,56,9.30
2013,11,02,02,57,9.30
2013,11,02,02,58,9.30
2013,11,02,02,59,9.30
2013,11,02,03,00,9.30
2013,11,02,03,01,9.30
2013,11,02,03,02,9.30
2013,11,02,03,03,9.30
2013,11,02,03,04,9.30
2013,11,02,03,05,9.30
2013,11,02,03,06,9.30
2013,11,02,03,07,9.30
2013,11,02,03,08,9.30
2013,11,02,03,09,9.30
2013,11,02,03,10,9.30
2013,11,02,03,11,9.30
2013,11,02,03,12,9.30
2013,11,02,03,13,9.30
2013,11,02,03,14,9.30
2013,11,02,03,15,9.30
2013,11,02,03,16,9.30
2013,11,02,03,17,9.30
2013,11,02,03,18,9.30
2013,11,02,03,19,9.30
2013,11,02,03,20,9.30
2013,11,02,03,21,9.30
2013,11,02,03,22,9.30
2013,11,02,03,23,9.30
2013,11,02,03,24,9.30
2013,11,02,03,25,9.30
2013,11,02,03,26,9.30
2013,11,02,03,27,9.30
2013,11,02,03,28,9.30
2013,11,02,03,29,9.30
2013,11,02,03,30,9.30
2013,11,02,03,31,9.30
2013,11,02,03,32,9.30
2013,11,02,03,33,9.30
2013,11,02,03,34,9.30
2013,11,02,03,35,9.30
2013,11,02,03,36,9.30
2013,11,02,03,37,9.30
2013,11,02,03,38,9.30
2013,11,02,03,39,9.30
2013,11,02,03,40,9.20
2013,11,02,03,41,9.30
2013,11,02,03,42,9.20
2013,11,02,03,43,9.20
2013,11,02,03,44,9.20
2013,11,02,03,45,9.20
2013,11,02,03,46,9.20
2013,11,02,03,47,9.20
2013,11,02,03,48,9.20
2013,11,02,03,49,9.20
2013,11,02,03,50,9.20
2013,11,02,03,51,9.20
2013,11,02,03,52,9.20
2013,11,02,03,53,9.20
2013,11,02,03,54,9.20
2013,11,02,03,55,9.20
2013,11,02,03,56,9.20
2013,11,02,03,57,9.20
2013,11,02,03,58,9.20
2013,11,02,03,59,9.20
2013,11,02,04,00,9.20
2013,11,02,04,01,9.20
2013,11,02,04,02,9.20
2013,11,02,04,03,9.20
2013,11,02,04,04,9.20
2013,11,02,04,05,9.20
2013,11,02,04,06,9.20
2013,11,02,04,07,9.20
2013,11,02,04,08,9.20
2013,11,02,04,09,9.20
2013,11,02,04,10,9.20
2013,11,02,04,11,9.20
2013,11,02,04,12,9.20
2013,11,02,04,13,9.20
2013,11,02,04,14,9.20
2013,11,02,04,15,9.20
2013,11,02,04,16,9.20
2013,11,02,04,17,9.20
2013,11,02,04,18,9.20
2013,11,02,04,19,9.20
2013,11,02,04,20,9.20
2013,11,02,04,21,9.20
2013,11,02,04,22,9.20
2013,11,02,04,23,9.20
2013,11,02,04,24,9.20
2013,11,02,04,25,9.20
2013,11,02,04,26,9.20
2013,11,02,04,27,9.20
2013,11,02,04,28,9.20
2013,11,02,04,29,9.20
2013,11,02,04,30,9.20
2013,11,02,04,31,9.20
2013,11,02,04,32,9.20
2013,11,02,04,33,9.20
2013,11,02,04,34,9.20
2013,11,02,04,35,9.20
2013,11,02,04,36,9.20
2013,11,02,04,37,9.20
2013,11,02,04,38,9.20
2013,11,02,04,39,9.20
2013,11,02,04,40,9.20
2013,11,02,04,41,9.20
2013,11,02,04,42,9.20
2013,11,02,04,43,9.20
2013,11,02,04,44,9.20
2013,11,02,04,45,9.20
2013,11,02,04,46,9.20
2013,11,02,04,47,9.10
2013,11,02,04,48,9.10
2013,11,02,04,49,9.10
2013,11,02,04,50,9.00
2013,11,02,04,51,8.90
2013,11,02,04,52,8.80
2013,11,02,04,53,8.70
2013,11,02,04,54,8.70
2013,11,02,04,55,8.60
2013,11,02,04,56,8.50
2013,11,02,04,57,8.50
2013,11,02,04,58,8.40
2013,11,02,04,59,8.30
2013,11,02,05,00,8.20
2013,11,02,05,01,8.10
2013,11,02,05,02,8.00
2013,11,02,05,03,7.90
2013,11,02,05,04,7.90
2013,11,02,05,05,7.80
2013,11,02,05,06,7.80
2013,11,02,05,07,7.80
2013,11,02,05,08,7.80
2013,11,02,05,09,7.70
2013,11,02,05,10,7.70
2013,11,02,05,11,7.70
2013,11,02,05,12,7.70
2013,11,02,05,13,7.70
2013,11,02,05,14,7.70
2013,11,02,05,15,7.60
2013,11,02,05,16,7.60
2013,11,02,05,17,7.60
2013,11,02,05,18,7.60
2013,11,02,05,19,7.60
2013,11,02,05,20,7.50
2013,11,02,05,21,7.40
2013,11,02,05,22,7.40
2013,11,02,05,23,7.30
2013,11,02,05,24,7.30
2013,11,02,05,25,7.30
2013,11,02,05,26,7.20
2013,11,02,05,27,7.20
2013,11,02,05,28,7.20
2013,11,02,05,29,7.20
2013,11,02,05,30,7.20
2013,11,02,05,31,7.20
2013,11,02,05,32,7.20
2013,11,02,05,33,7.20
2013,11,02,05,34,7.20
2013,11,02,05,35,7.20
2013,11,02,05,36,7.20
2013,11,02,05,37,7.20
2013,11,02,05,38,7.20
2013,11,02,05,39,7.20
2013,11,02,05,40,7.20
2013,11,02,05,41,7.20
2013,11,02,05,42,7.20
2013,11,02,05,43,7.20
2013,11,02,05,44,7.20
2013,11,02,05,45,7.20
2013,11,02,05,46,7.20
2013,11,02,05,47,7.20
2013,11,02,05,48,7.20
2013,11,02,05,49,7.20
2013,11,02,05,50,7.20
2013,11,02,05,51,7.20
2013,11,02,05,52,7.20
2013,11,02,05,53,7.20
2013,11,02,05,54,7.20
2013,11,02,05,55,7.30
2013,11,02,05,56,7.30
2013,11,02,05,57,7.30
2013,11,02,05,58,7.30
2013,11,02,05,59,7.30
2013,11,02,06,00,7.30
2013,11,02,06,01,7.30
2013,11,02,06,02,7.30
2013,11,02,06,03,7.30
2013,11,02,06,04,7.30
2013,11,02,06,05,7.30
2013,11,02,06,06,7.30
2013,11,02,06,07,7.30
2013,11,02,06,08,7.30
2013,11,02,06,09,7.30
2013,11,02,06,10,7.30
2013,11,02,06,11,7.30
2013,11,02,06,12,7.30
2013,11,02,06,13,7.30
2013,11,02,06,14,7.30
2013,11,02,06,15,7.30
2013,11,02,06,16,7.30
2013,11,02,06,17,7.30
2013,11,02,06,18,7.30
2013,11,02,06,19,7.30
2013,11,02,06,20,7.30
2013,11,02,06,21,7.30
2013,11,02,06,22,7.30
2013,11,02,06,23,7.30
2013,11,02,06,24,7.30
2013,11,02,06,25,7.30
2013,11,02,06,26,7.30
2013,11,02,06,27,7.30
2013,11,02,06,28,7.30
2013,11,02,06,29,7.30
2013,11,02,06,30,7.30
2013,11,02,06,31,7.30
2013,11,02,06,32,7.20
2013,11,02,06,33,7.20
2013,11,02,06,34,7.20
2013,11,02,06,35,7.20
2013,11,02,06,36,7.20
2013,11,02,06,37,7.20
2013,11,02,06,38,7.20
2013,11,02,06,39,7.20
2013,11,02,06,40,7.20
2013,11,02,06,41,7.20
2013,11,02,06,42,7.20
2013,11,02,06,43,7.20
2013,11,02,06,44,7.10
2013,11,02,06,45,7.10
2013,11,02,06,46,7.10
2013,11,02,06,47,7.10
2013,11,02,06,48,7.10
2013,11,02,06,49,7.10
2013,11,02,06,50,7.10
2013,11,02,06,51,7.00
2013,11,02,06,52,7.00
2013,11,02,06,53,7.00
2013,11,02,06,54,7.00
2013,11,02,06,55,7.00
2013,11,02,06,56,7.00
2013,11,02,06,57,7.00
2013,11,02,06,58,7.00
2013,11,02,06,59,7.00
2013,11,02,07,00,7.00
2013,11,02,07,01,7.00
2013,11,02,07,02,7.00
2013,11,02,07,03,7.00
2013,11,02,07,04,7.00
2013,11,02,07,05,7.00
2013,11,02,07,06,7.00
2013,11,02,07,07,7.00
2013,11,02,07,08,7.00
2013,11,02,07,09,7.00
2013,11,02,07,10,7.00
2013,11,02,07,11,7.00
2013,11,02,07,12,7.00
2013,11,02,07,13,7.00
2013,11,02,07,14,7.00
2013,11,02,07,15,7.00
2013,11,02,07,16,7.00
2013,11,02,07,17,7.00
2013,11,02,07,18,6.90
2013,11,02,07,19,6.90
2013,11,02,07,20,6.90
2013,11,02,07,21,6.90
2013,11,02,07,22,6.90
2013,11,02,07,23,6.90
2013,11,02,07,24,6.90
2013,11,02,07,25,6.80
2013,11,02,07,26,6.80
2013,11,02,07,27,6.80
2013,11,02,07,28,6.80
2013,11,02,07,29,6.70
2013,11,02,07,30,6.70
2013,11,02,07,31,6.70
2013,11,02,07,32,6.70
2013,11,02,07,33,6.70
2013,11,02,07,34,6.70
2013,11,02,07,35,6.70
2013,11,02,07,36,6.60
2013,11,02,07,37,6.60
2013,11,02,07,38,6.60
2013,11,02,07,39,6.60
2013,11,02,07,40,6.50
2013,11,02,07,41,6.50
2013,11,02,07,42,6.50
2013,11,02,07,43,6.40
2013,11,02,07,44,6.40
2013,11,02,07,45,6.40
2013,11,02,07,46,6.40
2013,11,02,07,47,6.40
2013,11,02,07,48,6.40
2013,11,02,07,49,6.30
2013,11,02,07,50,6.30
2013,11,02,07,51,6.30
2013,11,02,07,52,6.30
2013,11,02,07,53,6.30
2013,11,02,07,54,6.20
2013,11,02,07,55,6.20
2013,11,02,07,56,6.10
2013,11,02,07,57,6.10
2013,11,02,07,58,6.10
2013,11,02,07,59,6.00
2013,11,02,08,00,6.00
2013,11,02,08,01,5.90
2013,11,02,08,02,5.90
2013,11,02,08,03,5.90
2013,11,02,08,04,5.90
2013,11,02,08,05,5.80
2013,11,02,08,06,5.80
2013,11,02,08,07,5.80
2013,11,02,08,08,5.80
2013,11,02,08,09,5.70
2013,11,02,08,10,5.70
2013,11,02,08,11,5.70
2013,11,02,08,12,5.70
2013,11,02,08,13,5.60
2013,11,02,08,14,5.60
2013,11,02,08,15,5.60
2013,11,02,08,16,5.50
2013,11,02,08,17,5.50
2013,11,02,08,18,5.50
2013,11,02,08,19,5.40
2013,11,02,08,20,5.40
2013,11,02,08,21,5.40
2013,11,02,08,22,5.40
2013,11,02,08,23,5.30
2013,11,02,08,24,5.30
2013,11,02,08,25,5.30
2013,11,02,08,26,5.30
2013,11,02,08,27,5.20
2013,11,02,08,28,5.20
2013,11,02,08,29,5.20
2013,11,02,08,30,5.20
2013,11,02,08,31,5.20
2013,11,02,08,32,5.10
2013,11,02,08,33,5.10
2013,11,02,08,34,5.10
2013,11,02,08,35,5.10
2013,11,02,08,36,5.10
2013,11,02,08,37,5.10
2013,11,02,08,38,5.00
2013,11,02,08,39,5.00
2013,11,02,08,40,5.00
2013,11,02,08,41,5.00
2013,11,02,08,42,4.90
2013,11,02,08,43,4.90
2013,11,02,08,44,4.90
2013,11,02,08,45,4.90
2013,11,02,08,46,4.90
2013,11,02,08,47,4.90
2013,11,02,08,48,4.90
2013,11,02,08,49,4.90
2013,11,02,08,50,4.90
2013,11,02,08,51,4.90
2013,11,02,08,52,4.90
2013,11,02,08,53,4.90
2013,11,02,08,54,4.90
2013,11,02,08,55,4.90
2013,11,02,08,56,4.90
2013,11,02,08,57,4.90
2013,11,02,08,58,4.90
2013,11,02,08,59,4.90
2013,11,02,09,00,4.90
2013,11,02,09,01,4.90
2013,11,02,09,02,4.90
2013,11,02,09,03,4.90
2013,11,02,09,04,4.90
2013,11,02,09,05,5.00
2013,11,02,09,06,5.00
2013,11,02,09,07,5.00
2013,11,02,09,08,5.00
2013,11,02,09,09,5.00
2013,11,02,09,10,5.00
2013,11,02,09,11,5.00
2013,11,02,09,12,5.00
2013,11,02,09,13,5.00
2013,11,02,09,14,5.00
2013,11,02,09,15,5.10
2013,11,02,09,16,5.10
2013,11,02,09,17,5.10
2013,11,02,09,18,5.10
2013,11,02,09,19,5.00
2013,11,02,09,20,5.00
2013,11,02,09,21,5.00
2013,11,02,09,22,5.00
2013,11,02,09,23,5.10
2013,11,02,09,24,5.10
2013,11,02,09,25,5.10
2013,11,02,09,26,5.10
2013,11,02,09,27,5.10
2013,11,02,09,28,5.10
2013,11,02,09,29,5.00
2013,11,02,09,30,5.10
2013,11,02,09,31,5.10
2013,11,02,09,32,5.10
2013,11,02,09,33,5.10
2013,11,02,09,34,5.10
2013,11,02,09,35,5.10
2013,11,02,09,36,5.10
2013,11,02,09,37,5.10
2013,11,02,09,38,5.10
2013,11,02,09,39,5.10
2013,11,02,09,40,5.10
2013,11,02,09,41,5.10
2013,11,02,09,42,5.10
2013,11,02,09,43,5.10
2013,11,02,09,44,5.10
2013,11,02,09,45,5.10
2013,11,02,09,46,5.10
2013,11,02,09,47,5.10
2013,11,02,09,48,5.10
2013,11,02,09,49,5.10
2013,11,02,09,50,5.10
2013,11,02,09,51,5.10
2013,11,02,09,52,5.00
2013,11,02,09,53,5.10
2013,11,02,09,54,5.10
2013,11,02,09,55,5.10
2013,11,02,09,56,5.10
2013,11,02,09,57,5.10
2013,11,02,09,58,5.10
2013,11,02,09,59,5.10
2013,11,02,10,00,5.10
2013,11,02,10,01,5.10
2013,11,02,10,02,5.10
2013,11,02,10,03,5.00
2013,11,02,10,04,5.10
2013,11,02,10,05,5.10
2013,11,02,10,06,5.10
2013,11,02,10,07,5.00
2013,11,02,10,08,5.00
2013,11,02,10,09,5.00
2013,11,02,10,10,5.00
2013,11,02,10,11,5.10
2013,11,02,10,12,5.10
2013,11,02,10,13,5.10
2013,11,02,10,14,5.10
2013,11,02,10,15,5.10
2013,11,02,10,16,5.10
2013,11,02,10,17,5.10
2013,11,02,10,18,5.10
2013,11,02,10,19,5.10
2013,11,02,10,20,5.10
2013,11,02,10,21,5.10
2013,11,02,10,22,5.10
2013,11,02,10,23,5.20
2013,11,02,10,24,5.20
2013,11,02,10,25,5.20
2013,11,02,10,26,5.20
2013,11,02,10,27,5.20
2013,11,02,10,28,5.20
2013,11,02,10,29,5.20
2013,11,02,10,30,5.20
2013,11,02,10,31,5.20
2013,11,02,10,32,5.20
2013,11,02,10,33,5.20
2013,11,02,10,34,5.20
2013,11,02,10,35,5.20
2013,11,02,10,36,5.20
2013,11,02,10,37,5.20
2013,11,02,10,38,5.20
2013,11,02,10,39,5.20
2013,11,02,10,40,5.30
2013,11,02,10,41,5.30
2013,11,02,10,42,5.30
2013,11,02,10,43,5.30
2013,11,02,10,44,5.40
2013,11,02,10,45,5.40
2013,11,02,10,46,5.40
2013,11,02,10,47,5.40
2013,11,02,10,48,5.40
2013,11,02,10,49,5.40
2013,11,02,10,50,5.40
2013,11,02,10,51,5.40
2013,11,02,10,52,5.40
2013,11,02,10,53,5.40
2013,11,02,10,54,5.40
2013,11,02,10,55,5.40
2013,11,02,10,56,5.40
2013,11,02,10,57,5.50
2013,11,02,10,58,5.50
2013,11,02,10,59,5.50
2013,11,02,11,00,5.50
2013,11,02,11,01,5.60
2013,11,02,11,02,5.60
2013,11,02,11,03,5.60
2013,11,02,11,04,5.60
2013,11,02,11,05,5.60
2013,11,02,11,06,5.60
2013,11,02,11,07,5.70
2013,11,02,11,08,5.70
2013,11,02,11,09,5.70
2013,11,02,11,10,5.70
2013,11,02,11,11,5.80
2013,11,02,11,12,5.80
2013,11,02,11,13,5.80
2013,11,02,11,14,5.80
2013,11,02,11,15,5.90
2013,11,02,11,16,5.90
2013,11,02,11,17,5.90
2013,11,02,11,18,6.00
2013,11,02,11,19,6.10
2013,11,02,11,20,6.10
2013,11,02,11,21,6.10
2013,11,02,11,22,6.10
2013,11,02,11,23,6.10
2013,11,02,11,24,6.10
2013,11,02,11,25,6.10
2013,11,02,11,26,6.20
2013,11,02,11,27,6.20
2013,11,02,11,28,6.20
2013,11,02,11,29,6.20
2013,11,02,11,30,6.20
2013,11,02,11,31,6.30
2013,11,02,11,32,6.30
2013,11,02,11,33,6.30
2013,11,02,11,34,6.30
2013,11,02,11,35,6.30
2013,11,02,11,36,6.30
2013,11,02,11,37,6.30
2013,11,02,11,38,6.40
2013,11,02,11,39,6.40
2013,11,02,11,40,6.40
2013,11,02,11,41,6.40
2013,11,02,11,42,6.40
2013,11,02,11,43,6.40
2013,11,02,11,44,6.40
2013,11,02,11,45,6.40
2013,11,02,11,46,6.40
2013,11,02,11,47,6.40
2013,11,02,11,48,6.40
2013,11,02,11,49,6.40
2013,11,02,11,50,6.40
2013,11,02,11,51,6.40
2013,11,02,11,52,6.40
2013,11,02,11,53,6.40
2013,11,02,11,54,6.40
2013,11,02,11,55,6.40
2013,11,02,11,56,6.40
2013,11,02,11,57,6.40
2013,11,02,11,58,6.40
2013,11,02,11,59,6.40
2013,11,02,12,00,6.40
2013,11,02,12,01,6.40
2013,11,02,12,02,6.40
2013,11,02,12,03,6.40
2013,11,02,12,04,6.40
2013,11,02,12,05,6.40
2013,11,02,12,06,6.50
2013,11,02,12,07,6.50
2013,11,02,12,08,6.50
2013,11,02,12,09,6.50
2013,11,02,12,10,6.50
2013,11,02,12,11,6.40
2013,11,02,12,12,6.40
2013,11,02,12,13,6.40
2013,11,02,12,14,6.40
2013,11,02,12,15,6.40
2013,11,02,12,16,6.50
2013,11,02,12,17,6.50
2013,11,02,12,18,6.40
2013,11,02,12,19,6.40
2013,11,02,12,20,6.40
2013,11,02,12,21,6.40
2013,11,02,12,22,6.40
2013,11,02,12,23,6.40
2013,11,02,12,24,6.40
2013,11,02,12,25,6.40
2013,11,02,12,26,6.50
2013,11,02,12,27,6.40
2013,11,02,12,28,6.40
2013,11,02,12,29,6.40
2013,11,02,12,30,6.50
2013,11,02,12,31,6.50
2013,11,02,12,32,6.50
2013,11,02,12,33,6.60
2013,11,02,12,34,6.60
2013,11,02,12,35,6.60
2013,11,02,12,36,6.60
2013,11,02,12,37,6.60
2013,11,02,12,38,6.60
2013,11,02,12,39,6.70
2013,11,02,12,40,6.70
2013,11,02,12,41,6.70
2013,11,02,12,42,6.70
2013,11,02,12,43,6.70
2013,11,02,12,44,6.70
2013,11,02,12,45,6.70
2013,11,02,12,46,6.70
2013,11,02,12,47,6.70
2013,11,02,12,48,6.70
2013,11,02,12,49,6.70
2013,11,02,12,50,6.70
2013,11,02,12,51,6.70
2013,11,02,12,52,6.80
2013,11,02,12,53,6.80
2013,11,02,12,54,6.80
2013,11,02,12,55,6.80
2013,11,02,12,56,6.80
2013,11,02,12,57,6.80
2013,11,02,12,58,6.90
2013,11,02,12,59,6.90
2013,11,02,13,00,6.90
2013,11,02,13,01,6.90
2013,11,02,13,02,6.90
2013,11,02,13,03,6.90
2013,11,02,13,04,6.90
2013,11,02,13,05,7.00
2013,11,02,13,06,7.00
2013,11,02,13,07,7.10
2013,11,02,13,08,7.10
2013,11,02,13,09,7.10
2013,11,02,13,10,7.10
2013,11,02,13,11,7.10
2013,11,02,13,12,7.10
2013,11,02,13,13,7.20
2013,11,02,13,14,7.20
2013,11,02,13,15,7.20
2013,11,02,13,16,7.20
2013,11,02,13,17,7.20
2013,11,02,13,18,7.20
2013,11,02,13,19,7.20
2013,11,02,13,20,7.20
2013,11,02,13,21,7.20
2013,11,02,13,22,7.30
2013,11,02,13,23,7.40
2013,11,02,13,24,7.40
2013,11,02,13,25,7.40
2013,11,02,13,26,7.50
2013,11,02,13,27,7.60
2013,11,02,13,28,7.60
2013,11,02,13,29,7.60
2013,11,02,13,30,7.60
2013,11,02,13,31,7.60
2013,11,02,13,32,7.60
2013,11,02,13,33,7.60
2013,11,02,13,34,7.60
2013,11,02,13,35,7.70
2013,11,02,13,36,7.70
2013,11,02,13,37,7.70
2013,11,02,13,38,7.70
2013,11,02,13,39,7.70
2013,11,02,13,40,7.70
2013,11,02,13,41,7.70
2013,11,02,13,42,7.70
2013,11,02,13,43,7.80
2013,11,02,13,44,7.80
2013,11,02,13,45,7.70
2013,11,02,13,46,7.70
2013,11,02,13,47,7.70
2013,11,02,13,48,7.70
2013,11,02,13,49,7.80
2013,11,02,13,50,7.80
2013,11,02,13,51,7.80
2013,11,02,13,52,7.80
2013,11,02,13,53,7.80
2013,11,02,13,54,7.90
2013,11,02,13,55,7.90
2013,11,02,13,56,7.90
2013,11,02,13,57,7.90
2013,11,02,13,58,7.90
2013,11,02,13,59,7.90
2013,11,02,14,00,7.90
2013,11,02,14,01,7.90
2013,11,02,14,02,7.90
2013,11,02,14,03,7.90
2013,11,02,14,04,7.90
2013,11,02,14,05,7.90
2013,11,02,14,06,7.90
2013,11,02,14,07,8.00
2013,11,02,14,08,8.00
2013,11,02,14,09,8.00
2013,11,02,14,10,8.10
2013,11,02,14,11,8.00
2013,11,02,14,12,8.10
2013,11,02,14,13,8.10
2013,11,02,14,14,8.10
2013,11,02,14,15,8.10
2013,11,02,14,16,8.10
2013,11,02,14,17,8.10
2013,11,02,14,18,8.10
2013,11,02,14,19,8.10
2013,11,02,14,20,8.10
2013,11,02,14,21,8.10
2013,11,02,14,22,8.10
2013,11,02,14,23,8.10
2013,11,02,14,24,8.10
2013,11,02,14,25,8.10
2013,11,02,14,26,8.20
2013,11,02,14,27,8.20
2013,11,02,14,28,8.20
2013,11,02,14,29,8.20
2013,11,02,14,30,8.20
2013,11,02,14,31,8.20
2013,11,02,14,32,8.20
2013,11,02,14,33,8.20
2013,11,02,14,34,8.20
2013,11,02,14,35,8.20
2013,11,02,14,36,8.20
2013,11,02,14,37,8.20
2013,11,02,14,38,8.20
2013,11,02,14,39,8.20
2013,11,02,14,40,8.30
2013,11,02,14,41,8.30
2013,11,02,14,42,8.40
2013,11,02,14,43,8.50
2013,11,02,14,44,8.50
2013,11,02,14,45,8.60
2013,11,02,14,46,8.60
2013,11,02,14,47,8.60
2013,11,02,14,48,8.70
2013,11,02,14,49,8.70
2013,11,02,14,50,8.70
2013,11,02,14,51,8.70
2013,11,02,14,52,8.70
2013,11,02,14,53,8.70
2013,11,02,14,54,8.80
2013,11,02,14,55,8.80
2013,11,02,14,56,8.80
2013,11,02,14,57,8.80
2013,11,02,14,58,8.80
2013,11,02,14,59,8.80
2013,11,02,15,00,8.80
2013,11,02,15,01,8.90
2013,11,02,15,02,8.90
2013,11,02,15,03,8.90
2013,11,02,15,04,8.90
2013,11,02,15,05,8.90
2013,11,02,15,06,8.90
2013,11,02,15,07,8.90
2013,11,02,15,08,8.90
2013,11,02,15,09,8.90
2013,11,02,15,10,8.90
2013,11,02,15,11,8.90
2013,11,02,15,12,8.90
2013,11,02,15,13,8.90
2013,11,02,15,14,9.00
2013,11,02,15,15,8.90
2013,11,02,15,16,8.90
2013,11,02,15,17,9.00
2013,11,02,15,18,8.90
2013,11,02,15,19,8.90
2013,11,02,15,20,8.90
2013,11,02,15,21,8.90
2013,11,02,15,22,8.90
2013,11,02,15,23,8.90
2013,11,02,15,24,8.90
2013,11,02,15,25,8.90
2013,11,02,15,26,8.90
2013,11,02,15,27,8.90
2013,11,02,15,28,8.90
2013,11,02,15,29,8.90
2013,11,02,15,30,8.90
2013,11,02,15,31,8.90
2013,11,02,15,32,8.90
2013,11,02,15,33,8.90
2013,11,02,15,34,8.90
2013,11,02,15,35,8.90
2013,11,02,15,36,8.90
2013,11,02,15,37,8.90
2013,11,02,15,38,8.90
2013,11,02,15,39,8.90
2013,11,02,15,40,8.90
2013,11,02,15,41,8.90
2013,11,02,15,42,8.90
2013,11,02,15,43,8.90
2013,11,02,15,44,8.90
2013,11,02,15,45,9.00
2013,11,02,15,46,9.00
2013,11,02,15,47,9.00
2013,11,02,15,48,9.00
2013,11,02,15,49,9.00
2013,11,02,15,50,9.00
2013,11,02,15,51,9.00
2013,11,02,15,52,9.10
2013,11,02,15,53,9.10
2013,11,02,15,54,9.10
2013,11,02,15,55,9.10
2013,11,02,15,56,9.10
2013,11,02,15,57,9.10
2013,11,02,15,58,9.10
2013,11,02,15,59,9.10
2013,11,02,16,00,9.10
2013,11,02,16,01,9.10
2013,11,02,16,02,9.10
2013,11,02,16,03,9.10
2013,11,02,16,04,9.10
2013,11,02,16,05,9.10
2013,11,02,16,06,9.10
2013,11,02,16,07,9.10
2013,11,02,16,08,9.10
2013,11,02,16,09,9.10
2013,11,02,16,10,9.10
2013,11,02,16,11,9.10
2013,11,02,16,12,9.10
2013,11,02,16,13,9.10
2013,11,02,16,14,9.10
2013,11,02,16,15,9.10
2013,11,02,16,16,9.10
2013,11,02,16,17,9.10
2013,11,02,16,18,9.10
2013,11,02,16,19,9.10
2013,11,02,16,20,9.10
2013,11,02,16,21,9.10
2013,11,02,16,22,9.10
2013,11,02,16,23,9.10
2013,11,02,16,24,9.10
2013,11,02,16,25,9.10
2013,11,02,16,26,9.10
2013,11,02,16,27,9.10
2013,11,02,16,28,9.10
2013,11,02,16,29,9.10
2013,11,02,16,30,9.10
2013,11,02,16,31,9.10
2013,11,02,16,32,9.10
2013,11,02,16,33,9.10
2013,11,02,16,34,9.10
2013,11,02,16,35,9.10
2013,11,02,16,36,9.10
2013,11,02,16,37,9.10
2013,11,02,16,38,9.10
2013,11,02,16,39,9.10
2013,11,02,16,40,9.10
2013,11,02,16,41,9.10
2013,11,02,16,42,9.10
2013,11,02,16,43,9.10
2013,11,02,16,44,9.10
2013,11,02,16,45,9.10
2013,11,02,16,46,9.10
2013,11,02,16,47,9.10
2013,11,02,16,48,9.10
2013,11,02,16,49,9.10
2013,11,02,16,50,9.10
2013,11,02,16,51,9.00
2013,11,02,16,52,9.00
2013,11,02,16,53,9.00
2013,11,02,16,54,9.00
2013,11,02,16,55,8.90
2013,11,02,16,56,8.90
2013,11,02,16,57,8.90
2013,11,02,16,58,8.90
2013,11,02,16,59,8.90
2013,11,02,17,00,8.90
2013,11,02,17,01,8.90
2013,11,02,17,02,8.90
2013,11,02,17,03,8.90
2013,11,02,17,04,8.90
2013,11,02,17,05,8.90
2013,11,02,17,06,8.90
2013,11,02,17,07,8.90
2013,11,02,17,08,8.90
2013,11,02,17,09,8.90
2013,11,02,17,10,8.90
2013,11,02,17,11,8.90
2013,11,02,17,12,8.80
2013,11,02,17,13,8.80
2013,11,02,17,14,8.80
2013,11,02,17,15,8.80
2013,11,02,17,16,8.80
2013,11,02,17,17,8.80
2013,11,02,17,18,8.80
2013,11,02,17,19,8.80
2013,11,02,17,20,8.80
2013,11,02,17,21,8.80
2013,11,02,17,22,8.80
2013,11,02,17,23,8.80
2013,11,02,17,24,8.80
2013,11,02,17,25,8.80
2013,11,02,17,26,8.80
2013,11,02,17,27,8.80
2013,11,02,17,28,8.70
2013,11,02,17,29,8.70
2013,11,02,17,30,8.70
2013,11,02,17,31,8.70
2013,11,02,17,32,8.70
2013,11,02,17,33,8.70
2013,11,02,17,34,8.70
2013,11,02,17,35,8.60
2013,11,02,17,36,8.60
2013,11,02,17,37,8.60
2013,11,02,17,38,8.60
2013,11,02,17,39,8.60
2013,11,02,17,40,8.60
2013,11,02,17,41,8.60
2013,11,02,17,42,8.60
2013,11,02,17,43,8.60
2013,11,02,17,44,8.60
2013,11,02,17,45,8.60
2013,11,02,17,46,8.60
2013,11,02,17,47,8.60
2013,11,02,17,48,8.60
2013,11,02,17,49,8.60
2013,11,02,17,50,8.60
2013,11,02,17,51,8.60
2013,11,02,17,52,8.60
2013,11,02,17,53,8.60
2013,11,02,17,54,8.60
2013,11,02,17,55,8.60
2013,11,02,17,56,8.50
2013,11,02,17,57,8.50
2013,11,02,17,58,8.50
2013,11,02,17,59,8.50
2013,11,02,18,00,8.50
2013,11,02,18,01,8.50
2013,11,02,18,02,8.50
2013,11,02,18,03,8.50
2013,11,02,18,04,8.50
2013,11,02,18,05,8.40
2013,11,02,18,06,8.40